Location: Unspecified
(50.0000°N, 15.0000°E)
Time: 05:01:22
(UTC+01:00)

ISS - Pass Details

Date: 05 December 2021
Orbit: 413 x 422 km, 51.6° (Epoch: 22 January)

Event Time Altitude Azimuth Distance (km) Brightness Sun altitude
Rises 17:03:34 0° 287° (WNW) 2,386 0.9 -9.8°
Reaches altitude 10° 17:05:41 10° 285° (WNW) 1,517 -0.1 -10.2°
Maximum altitude 17:09:04 69° 202° (SSW) 457 -3.4 -10.7°
Drops below altitude 10° 17:12:26 10° 119° (ESE) 1,506 -1.3 -11.2°
Enters shadow 17:12:54 - 118° (ESE) 1,696 -1.1 -11.2°
